| time (UTC) | temp C | wind direction | speed KPH | gust KPH | rain 1hr cm | rain 24hr cm | rain mn cm | humidity % | barometer mb |
| 20260507040334 | 25 | 216 | 0.0 | 1.6 | 0.00 | 0.00 | 0.00 | 81 | 1016.4 |
| 20260507035834 | 25 | 208 | 0.0 | 1.6 | 0.00 | 0.00 | 0.00 | 80 | 1016.5 |
| 20260507035334 | 25 | 207 | 0.0 | 1.6 | 0.00 | 0.00 | 0.00 | 80 | 1016.5 |
| 20260507033234 | 25 | 184 | 1.6 | 4.8 | 0.00 | 0.00 | 0.00 | 78 | 1016.4 |
| 20260507032704 | 25 | 194 | 1.6 | 8.0 | 0.00 | 0.00 | 0.00 | 78 | 1016.3 |
| 20260507032134 | 25 | 217 | 1.6 | 8.0 | 0.00 | 0.00 | 0.00 | 77 | 1016.2 |
| 20260507031634 | 25 | 234 | 3.2 | 11.3 | 0.00 | 0.00 | 0.00 | 77 | 1016.1 |
| 20260507031104 | 25 | 244 | 4.8 | 11.3 | 0.00 | 0.00 | 0.00 | 76 | 1016.1 |
| 20260507030604 | 25 | 244 | 4.8 | 11.3 | 0.00 | 0.00 | 0.00 | 75 | 1016.0 |
| 20260507030034 | 26 | 239 | 6.4 | 16.1 | 0.00 | 0.00 | 0.00 | 75 | 1015.8 |
| 20260507024934 | 26 | 236 | 8.0 | 16.1 | 0.00 | 0.00 | 0.00 | 74 | 1015.7 |
| 20260507024404 | 26 | 234 | 6.4 | 16.1 | 0.00 | 0.00 | 0.00 | 73 | 1015.7 |
| 20260507022234 | 26 | 246 | 4.8 | 11.3 | 0.00 | 0.00 | 0.00 | 74 | 1016.0 |
| 20260507021734 | 26 | 228 | 1.6 | 8.0 | 0.00 | 0.00 | 0.00 | 75 | 1015.9 |
| 20260507021234 | 27 | 198 | 3.2 | 9.7 | 0.00 | 0.00 | 0.00 | 74 | 1015.7 |
| 20260507020204 | 27 | 183 | 3.2 | 9.7 | 0.00 | 0.00 | 0.00 | 72 | 1015.7 |
| 20260507015634 | 27 | 124 | 3.2 | 9.7 | 0.00 | 0.00 | 0.00 | 68 | 1015.8 |
| 20260507015134 | 27 | 100 | 3.2 | 9.7 | 0.00 | 0.00 | 0.00 | 65 | 1015.7 |
| 20260507014104 | 27 | 153 | 1.6 | 9.7 | 0.00 | 0.00 | 0.00 | 64 | 1015.9 |
| 20260507013534 | 28 | 168 | 3.2 | 9.7 | 0.00 | 0.00 | 0.00 | 63 | 1015.9 |
| 20260507012007 | 28 | 136 | 4.8 | 14.5 | 0.00 | 0.00 | 0.00 | 63 | 1015.8 |
| 20260507010904 | 28 | 105 | 6.4 | 19.3 | 0.00 | 0.00 | 0.00 | 63 | 1015.7 |
| 20260507010333 | 28 | 114 | 4.8 | 16.1 | 0.00 | 0.00 | 0.00 | 63 | 1015.7 |
| 20260507005835 | 28 | 228 | 3.2 | 12.9 | 0.00 | 0.00 | 0.00 | 60 | 1015.8 |
| 20260507005306 | 28 | 235 | 4.8 | 12.9 | 0.00 | 0.00 | 0.00 | 60 | 1015.7 |
| 20260507004804 | 28 | 106 | 8.0 | 17.7 | 0.00 | 0.00 | 0.00 | 62 | 1015.5 |
| 20260507004234 | 28 | 100 | 16.1 | 27.4 | 0.00 | 0.00 | 0.00 | 62 | 1015.2 |
| 20260507003735 | 28 | 99 | 14.5 | 27.4 | 0.00 | 0.00 | 0.00 | 62 | 1015.1 |
| 20260507003234 | 28 | 101 | 8.0 | 27.4 | 0.00 | 0.00 | 0.00 | 62 | 1015.1 |
| 20260507002204 | 29 | 104 | 4.8 | 9.7 | 0.00 | 0.00 | 0.00 | 59 | 1014.9 |
| 20260507001634 | 30 | 105 | 3.2 | 9.7 | 0.00 | 0.00 | 0.00 | 58 | 1015.0 |
| 20260507001104 | 30 | 123 | 0.0 | 4.8 | 0.00 | 0.00 | 0.00 | 55 | 1014.8 |
| 20260507000604 | 30 | 154 | 0.0 | 1.6 | 0.00 | 0.00 | 0.00 | 54 | 1014.8 |
| 20260507000034 | 31 | 154 | 0.0 | 1.6 | 0.00 | 0.00 | 0.00 | 51 | 1014.7 |
| 20260506234933 | 31 | 170 | 0.0 | 3.2 | 0.00 | 0.00 | 0.00 | 49 | 1014.7 |
| 20260506234433 | 31 | 165 | 0.0 | 3.2 | 0.00 | 0.00 | 0.00 | 51 | 1014.6 |
| 20260506233904 | 32 | 153 | 1.6 | 3.2 | 0.00 | 0.00 | 0.00 | 48 | 1014.6 |
| 20260506233334 | 32 | 144 | 0.0 | 3.2 | 0.00 | 0.00 | 0.00 | 49 | 1014.6 |
| 20260506232833 | 32 | 126 | 0.0 | 1.6 | 0.00 | 0.00 | 0.00 | 49 | 1014.6 |
| 20260506232306 | 32 | 130 | 0.0 | 3.2 | 0.00 | 0.00 | 0.00 | 49 | 1014.6 |
| 20260506231305 | 32 | 112 | 1.6 | 3.2 | 0.00 | 0.00 | 0.00 | 47 | 1014.7 |
| 20260506230938 | 32 | 110 | 1.6 | 4.8 | 0.00 | 0.00 | 0.00 | 49 | 1014.7 |
| 20260506230806 | 32 | 110 | 1.6 | 4.8 | 0.00 | 0.00 | 0.00 | 49 | 1014.7 |
| 20260506230305 | 32 | 110 | 3.2 | 4.8 | 0.00 | 0.00 | 0.00 | 52 | 1014.6 |
| 20260506225734 | 32 | 105 | 3.2 | 6.4 | 0.00 | 0.00 | 0.00 | 50 | 1014.7 |
| 20260506225204 | 32 | 106 | 3.2 | 6.4 | 0.00 | 0.00 | 0.00 | 53 | 1014.6 |
| 20260506224704 | 32 | 107 | 3.2 | 4.8 | 0.00 | 0.00 | 0.00 | 52 | 1014.8 |
| 20260506224133 | 32 | 109 | 3.2 | 4.8 | 0.00 | 0.00 | 0.00 | 45 | 1014.8 |
| 20260506223634 | 32 | 111 | 3.2 | 4.8 | 0.00 | 0.00 | 0.00 | 49 | 1014.8 |
| 20260506223104 | 32 | 111 | 3.2 | 6.4 | 0.00 | 0.00 | 0.00 | 49 | 1014.7 |
| 20260506221434 | 32 | 103 | 4.8 | 9.7 | 0.00 | 0.00 | 0.00 | 49 | 1014.8 |
| 20260506220934 | 32 | 104 | 4.8 | 9.7 | 0.00 | 0.00 | 0.00 | 46 | 1014.8 |
| 20260506220434 | 32 | 105 | 4.8 | 9.7 | 0.00 | 0.00 | 0.00 | 46 | 1014.8 |
| 20260506215904 | 33 | 104 | 4.8 | 9.7 | 0.00 | 0.00 | 0.00 | 47 | 1014.9 |
| 20260506215334 | 33 | 105 | 4.8 | 11.3 | 0.00 | 0.00 | 0.00 | 47 | 1015.0 |
| 20260506214305 | 33 | 90 | 1.6 | 6.4 | 0.00 | 0.00 | 0.00 | 47 | 1015.1 |
| 20260506212734 | 33 | 104 | 4.8 | 9.7 | 0.00 | 0.00 | 0.00 | 50 | 1015.0 |
| 20260506212204 | 33 | 103 | 4.8 | 11.3 | 0.00 | 0.00 | 0.00 | 45 | 1015.0 |
| 20260506211636 | 33 | 97 | 4.8 | 11.3 | 0.00 | 0.00 | 0.00 | 48 | 1015.0 |
| 20260506211134 | 33 | 97 | 6.4 | 12.9 | 0.00 | 0.00 | 0.00 | 46 | 1014.9 |
| 20260506210604 | 33 | 101 | 6.4 | 12.9 | 0.00 | 0.00 | 0.00 | 46 | 1014.9 |
| 20260506210103 | 33 | 99 | 4.8 | 11.3 | 0.00 | 0.00 | 0.00 | 47 | 1015.0 |
| 20260506205534 | 33 | 105 | 6.4 | 12.9 | 0.00 | 0.00 | 0.00 | 44 | 1014.8 |
| 20260506204433 | 34 | 101 | 8.0 | 14.5 | 0.00 | 0.00 | 0.00 | 44 | 1014.8 |
| 20260506203904 | 34 | 102 | 6.4 | 14.5 | 0.00 | 0.00 | 0.00 | 46 | 1015.0 |
| 20260506203404 | 34 | 102 | 4.8 | 11.3 | 0.00 | 0.00 | 0.00 | 46 | 1015.0 |
| 20260506202834 | 35 | 100 | 4.8 | 11.3 | 0.00 | 0.00 | 0.00 | 45 | 1015.1 |
| 20260506201234 | 35 | 117 | 3.2 | 8.0 | 0.00 | 0.00 | 0.00 | 44 | 1015.1 |
| 20260506200204 | 34 | 97 | 6.4 | 11.3 | 0.00 | 0.00 | 0.00 | 45 | 1015.2 |
| 20260506195704 | 35 | 95 | 6.4 | 11.3 | 0.00 | 0.00 | 0.00 | 47 | 1015.1 |
| 20260506195133 | 35 | 92 | 3.2 | 9.7 | 0.00 | 0.00 | 0.00 | 46 | 1015.1 |
| 20260506194634 | 34 | 116 | 3.2 | 12.9 | 0.00 | 0.00 | 0.00 | 45 | 1015.2 |
| 20260506194103 | 34 | 110 | 6.4 | 12.9 | 0.00 | 0.00 | 0.00 | 45 | 1015.3 |
| 20260506193034 | 34 | 98 | 6.4 | 14.5 | 0.00 | 0.00 | 0.00 | 50 | 1015.4 |
| 20260506192534 | 34 | 102 | 4.8 | 14.5 | 0.00 | 0.00 | 0.00 | 48 | 1015.5 |
| 20260506192034 | 34 | 102 | 6.4 | 14.5 | 0.00 | 0.00 | 0.00 | 48 | 1015.6 |
| 20260506191534 | 34 | 102 | 8.0 | 14.5 | 0.00 | 0.00 | 0.00 | 49 | 1015.7 |
| 20260506185934 | 34 | 94 | 8.0 | 14.5 | 0.00 | 0.00 | 0.00 | 47 | 1016.0 |
| 20260506185433 | 34 | 99 | 6.4 | 14.5 | 0.00 | 0.00 | 0.00 | 50 | 1016.2 |
| 20260506184904 | 33 | 99 | 8.0 | 12.9 | 0.00 | 0.00 | 0.00 | 49 | 1016.2 |
| 20260506184404 | 33 | 96 | 8.0 | 12.9 | 0.00 | 0.00 | 0.00 | 50 | 1016.2 |
| 20260506181233 | 33 | 98 | 8.0 | 16.1 | 0.00 | 0.00 | 0.00 | 51 | 1016.6 |
| 20260506180204 | 32 | 101 | 6.4 | 14.5 | 0.00 | 0.00 | 0.00 | 53 | 1016.6 |
| 20260506175704 | 32 | 103 | 8.0 | 14.5 | 0.00 | 0.00 | 0.00 | 52 | 1016.7 |
| 20260506174603 | 32 | 98 | 8.0 | 14.5 | 0.00 | 0.00 | 0.00 | 54 | 1016.9 |
| 20260506174103 | 32 | 99 | 8.0 | 12.9 | 0.00 | 0.00 | 0.00 | 53 | 1017.0 |
| 20260506173533 | 32 | 100 | 8.0 | 14.5 | 0.00 | 0.00 | 0.00 | 55 | 1017.0 |
| 20260506173033 | 32 | 99 | 6.4 | 14.5 | 0.00 | 0.00 | 0.00 | 54 | 1017.0 |
| 20260506172534 | 32 | 101 | 6.4 | 12.9 | 0.00 | 0.00 | 0.00 | 55 | 1017.1 |
| 20260506171434 | 32 | 106 | 6.4 | 12.9 | 0.00 | 0.00 | 0.00 | 53 | 1017.2 |
| 20260506170904 | 32 | 101 | 6.4 | 12.9 | 0.00 | 0.00 | 0.00 | 56 | 1017.2 |
| 20260506170334 | 32 | 100 | 8.0 | 12.9 | 0.00 | 0.00 | 0.00 | 56 | 1017.3 |
| 20260506164734 | 32 | 103 | 8.0 | 14.5 | 0.00 | 0.00 | 0.00 | 57 | 1017.4 |
| 20260506164204 | 32 | 106 | 6.4 | 14.5 | 0.00 | 0.00 | 0.00 | 56 | 1017.4 |
| 20260506163704 | 32 | 110 | 4.8 | 14.5 | 0.00 | 0.00 | 0.00 | 56 | 1017.4 |
| 20260506162703 | 32 | 97 | 8.0 | 12.9 | 0.00 | 0.00 | 0.00 | 56 | 1017.4 |
| 20260506162134 | 32 | 107 | 4.8 | 12.9 | 0.00 | 0.00 | 0.00 | 56 | 1017.4 |
| 20260506161634 | 32 | 120 | 4.8 | 11.3 | 0.00 | 0.00 | 0.00 | 57 | 1017.6 |
| 20260506161104 | 32 | 114 | 6.4 | 16.1 | 0.00 | 0.00 | 0.00 | 56 | 1017.5 |
| 20260506160603 | 31 | 113 | 6.4 | 16.1 | 0.00 | 0.00 | 0.00 | 54 | 1017.4 |
| 20260506160034 | 32 | 106 | 4.8 | 12.9 | 0.00 | 0.00 | 0.00 | 56 | 1017.5 |
| 20260506155534 | 31 | 104 | 4.8 | 12.9 | 0.00 | 0.00 | 0.00 | 57 | 1017.4 |
| 20260506155004 | 31 | 105 | 4.8 | 11.3 | 0.00 | 0.00 | 0.00 | 58 | 1017.4 |
| 20260506153933 | 31 | 112 | 4.8 | 11.3 | 0.00 | 0.00 | 0.00 | 61 | 1017.6 |
| 20260506153549 | 31 | 99 | 4.8 | 16.1 | 0.00 | 0.00 | 0.00 | 63 | 1017.6 |
| 20260506153433 | 31 | 99 | 4.8 | 16.1 | 0.00 | 0.00 | 0.00 | 63 | 1017.6 |
| 20260506152933 | 30 | 104 | 4.8 | 16.1 | 0.00 | 0.00 | 0.00 | 64 | 1017.6 |
| 20260506152403 | 30 | 109 | 4.8 | 12.9 | 0.00 | 0.00 | 0.00 | 65 | 1017.7 |
| 20260506151834 | 29 | 131 | 3.2 | 12.9 | 0.00 | 0.00 | 0.00 | 67 | 1017.7 |
| 20260506150235 | 28 | 139 | 3.2 | 12.9 | 0.00 | 0.00 | 0.00 | 71 | 1017.4 |
| 20260506145734 | 28 | 119 | 3.2 | 11.3 | 0.00 | 0.00 | 0.00 | 73 | 1017.5 |
| 20260506145234 | 28 | 123 | 3.2 | 11.3 | 0.00 | 0.00 | 0.00 | 73 | 1017.5 |
| 20260506144733 | 28 | 135 | 3.2 | 9.7 | 0.00 | 0.00 | 0.00 | 75 | 1017.6 |
| 20260506144447 | 28 | 119 | 4.8 | 9.7 | 0.00 | 0.00 | 0.00 | 75 | 1017.7 |
| 20260506144204 | 28 | 119 | 4.8 | 9.7 | 0.00 | 0.00 | 0.00 | 75 | 1017.7 |
| 20260506143704 | 28 | 110 | 4.8 | 11.3 | 0.00 | 0.00 | 0.00 | 76 | 1017.7 |
| 20260506143204 | 27 | 116 | 3.2 | 11.3 | 0.00 | 0.00 | 0.00 | 77 | 1017.7 |
| 20260506142133 | 27 | 130 | 3.2 | 6.4 | 0.00 | 0.00 | 0.00 | 80 | 1017.7 |
| 20260506141633 | 26 | 134 | 3.2 | 11.3 | 0.00 | 0.00 | 0.00 | 80 | 1017.7 |
| 20260506141210 | 26 | 124 | 3.2 | 11.3 | 0.00 | 0.00 | 0.00 | 81 | 1017.7 |
| 20260506141134 | 26 | 124 | 3.2 | 11.3 | 0.00 | 0.00 | 0.00 | 81 | 1017.7 |
| 20260506140604 | 26 | 136 | 3.2 | 11.3 | 0.00 | 0.00 | 0.00 | 82 | 1017.6 |
| 20260506140033 | 25 | 160 | 3.2 | 12.9 | 0.00 | 0.00 | 0.00 | 83 | 1017.6 |
| 20260506135003 | 25 | 171 | 4.8 | 14.5 | 0.00 | 0.00 | 0.00 | 84 | 1017.6 |
| 20260506134503 | 25 | 169 | 3.2 | 14.5 | 0.00 | 0.00 | 0.00 | 85 | 1017.7 |
| 20260506133933 | 25 | 168 | 4.8 | 11.3 | 0.00 | 0.00 | 0.00 | 86 | 1017.6 |
| 20260506133404 | 25 | 173 | 4.8 | 11.3 | 0.00 | 0.00 | 0.00 | 86 | 1017.7 |
| 20260506132903 | 24 | 176 | 4.8 | 12.9 | 0.00 | 0.00 | 0.00 | 87 | 1017.6 |
| 20260506132334 | 24 | 174 | 3.2 | 12.9 | 0.00 | 0.00 | 0.00 | 87 | 1017.5 |
| 20260506131334 | 24 | 163 | 4.8 | 11.3 | 0.00 | 0.00 | 0.00 | 88 | 1017.2 |
| 20260506130334 | 23 | 147 | 3.2 | 11.3 | 0.00 | 0.00 | 0.00 | 89 | 1017.2 |
| 20260506125333 | 23 | 158 | 3.2 | 9.7 | 0.00 | 0.00 | 0.00 | 90 | 1017.1 |
| 20260506124833 | 23 | 164 | 3.2 | 9.7 | 0.00 | 0.00 | 0.00 | 91 | 1016.9 |
| 20260506123234 | 22 | 123 | 1.6 | 9.7 | 0.00 | 0.00 | 0.00 | 93 | 1016.9 |
| 20260506122734 | 22 | 128 | 1.6 | 9.7 | 0.00 | 0.00 | 0.00 | 93 | 1016.9 |
| 20260506121134 | 22 | 174 | 1.6 | 9.7 | 0.00 | 0.00 | 0.00 | 93 | 1016.9 |
| 20260506120603 | 22 | 129 | 1.6 | 6.4 | 0.00 | 0.00 | 0.00 | 93 | 1016.9 |
| 20260506120103 | 22 | 118 | 3.2 | 6.4 | 0.00 | 0.00 | 0.00 | 94 | 1016.8 |
| 20260506115034 | 21 | 134 | 1.6 | 8.0 | 0.00 | 0.00 | 0.00 | 94 | 1016.7 |
| 20260506114534 | 21 | 115 | 1.6 | 9.7 | 0.00 | 0.00 | 0.00 | 94 | 1016.6 |
| 20260506111933 | 21 | 153 | 1.6 | 4.8 | 0.00 | 0.00 | 0.00 | 95 | 1016.5 |
| 20260506110834 | 21 | 132 | 1.6 | 9.7 | 0.00 | 0.00 | 0.00 | 95 | 1016.4 |
| 20260506105733 | 20 | 148 | 1.6 | 6.4 | 0.00 | 0.00 | 0.00 | 95 | 1016.2 |
| 20260506105203 | 20 | 132 | 1.6 | 6.4 | 0.00 | 0.00 | 0.00 | 95 | 1016.1 |
| 20260506104703 | 20 | 111 | 1.6 | 6.4 | 0.00 | 0.00 | 0.00 | 95 | 1016.0 |
| 20260506104133 | 20 | 107 | 3.2 | 6.4 | 0.00 | 0.00 | 0.00 | 95 | 1016.1 |
| 20260506103633 | 20 | 105 | 3.2 | 6.4 | 0.00 | 0.00 | 0.00 | 94 | 1016.0 |
| 20260506103133 | 20 | 102 | 3.2 | 6.4 | 0.00 | 0.00 | 0.00 | 94 | 1016.0 |
| 20260506102133 | 20 | 106 | 4.8 | 6.4 | 0.00 | 0.00 | 0.00 | 94 | 1016.0 |
| 20260506101603 | 21 | 104 | 3.2 | 9.7 | 0.00 | 0.00 | 0.00 | 94 | 1016.1 |
| 20260506101103 | 21 | 104 | 1.6 | 9.7 | 0.00 | 0.00 | 0.00 | 94 | 1016.0 |
| 20260506100534 | 21 | 135 | 0.0 | 6.4 | 0.00 | 0.00 | 0.00 | 94 | 1016.0 |
| 20260506095503 | 21 | 144 | 0.0 | 1.6 | 0.00 | 0.00 | 0.00 | 93 | 1016.1 |
| 20260506094434 | 21 | 111 | 1.6 | 4.8 | 0.00 | 0.00 | 0.00 | 93 | 1016.0 |
| 20260506093934 | 21 | 113 | 1.6 | 4.8 | 0.00 | 0.00 | 0.00 | 92 | 1015.9 |
| 20260506093433 | 21 | 118 | 0.0 | 4.8 | 0.00 | 0.00 | 0.00 | 92 | 1015.9 |
| 20260506092903 | 21 | 152 | 1.6 | 3.2 | 0.00 | 0.00 | 0.00 | 92 | 1016.0 |
| 20260506092403 | 21 | 154 | 1.6 | 8.0 | 0.00 | 0.00 | 0.00 | 92 | 1015.9 |
| 20260506091903 | 21 | 147 | 0.0 | 8.0 | 0.00 | 0.00 | 0.00 | 92 | 1015.7 |
| 20260506091334 | 21 | 148 | 0.0 | 4.8 | 0.00 | 0.00 | 0.00 | 92 | 1015.7 |
| 20260506090333 | 20 | 168 | 1.6 | 6.4 | 0.00 | 0.00 | 0.00 | 91 | 1015.7 |
| 20260506084803 | 20 | 105 | 1.6 | 3.2 | 0.00 | 0.00 | 0.00 | 90 | 1015.7 |
| 20260506084303 | 21 | 109 | 1.6 | 6.4 | 0.00 | 0.00 | 0.00 | 90 | 1015.8 |
| 20260506083803 | 21 | 109 | 3.2 | 6.4 | 0.00 | 0.00 | 0.00 | 90 | 1015.7 |
| 20260506083304 | 20 | 121 | 3.2 | 6.4 | 0.00 | 0.00 | 0.00 | 90 | 1015.7 |
| 20260506082803 | 20 | 139 | 1.6 | 6.4 | 0.00 | 0.00 | 0.00 | 90 | 1015.6 |
| 20260506082234 | 20 | 145 | 0.0 | 4.8 | 0.00 | 0.00 | 0.00 | 89 | 1015.9 |
| 20260506081233 | 20 | 136 | 1.6 | 3.2 | 0.00 | 0.00 | 0.00 | 89 | 1016.0 |
| 20260506080133 | 20 | 152 | 1.6 | 4.8 | 0.00 | 0.00 | 0.00 | 88 | 1015.9 |
| 20260506073103 | 20 | 151 | 1.6 | 4.8 | 0.00 | 0.00 | 0.00 | 88 | 1016.0 |
| 20260506072533 | 20 | 138 | 1.6 | 6.4 | 0.00 | 0.00 | 0.00 | 88 | 1015.9 |
| 20260506072003 | 20 | 144 | 1.6 | 6.4 | 0.00 | 0.00 | 0.00 | 88 | 1016.1 |
| 20260506071503 | 20 | 155 | 1.6 | 4.8 | 0.00 | 0.00 | 0.00 | 88 | 1016.1 |
| 20260506071003 | 20 | 118 | 0.0 | 4.8 | 0.00 | 0.00 | 0.00 | 88 | 1016.1 |
| 20260506062233 | 20 | 105 | 3.2 | 8.0 | 0.00 | 0.00 | 0.00 | 87 | 1016.3 |
| 20260506061733 | 20 | 102 | 3.2 | 9.7 | 0.00 | 0.00 | 0.00 | 87 | 1016.3 |
| 20260506061207 | 20 | 101 | 3.2 | 9.7 | 0.00 | 0.00 | 0.00 | 87 | 1016.4 |
| 20260506060633 | 20 | 111 | 1.6 | 6.4 | 0.00 | 0.00 | 0.00 | 87 | 1016.4 |
| 20260506060134 | 20 | 123 | 0.0 | 6.4 | 0.00 | 0.00 | 0.00 | 87 | 1016.5 |
| 20260506050933 | 20 | 101 | 4.8 | 9.7 | 0.00 | 0.00 | 0.00 | 85 | 1016.9 |
| 20260506050433 | 20 | 102 | 4.8 | 6.4 | 0.00 | 0.00 | 0.00 | 84 | 1017.0 |
| 20260506042733 | 21 | 105 | 3.2 | 9.7 | 0.00 | 0.00 | 0.00 | 82 | 1017.0 |
| 20260506042233 | 21 | 110 | 3.2 | 6.4 | 0.00 | 0.00 | 0.00 | 81 | 1016.9 |
| 20260506041703 | 21 | 105 | 3.2 | 9.7 | 0.00 | 0.00 | 0.00 | 81 | 1016.9 |